TimeEDT,TemperatureF,Dew PointF,Humidity,Sea Level PressureIn,VisibilityMPH,Wind Direction,Wind SpeedMPH,Gust SpeedMPH,PrecipitationIn,Events,Conditions,WindDirDegrees,DateUTC
12:06 AM,59.0,57.0,93,29.80,0.8,Calm,Calm,-,N/A,,Overcast,0,2013-10-02 04:06:00
12:55 AM,55.9,55.0,97,29.80,0.2,SSW,3.5,-,N/A,Fog,Fog,210,2013-10-02 04:55:00
1:27 AM,54.0,53.1,97,29.82,1.2,South,3.5,-,N/A,,Scattered Clouds,180,2013-10-02 05:27:00
1:31 AM,54.0,53.1,97,29.82,3.0,Calm,Calm,-,N/A,,Partly Cloudy,0,2013-10-02 05:31:00
1:55 AM,53.1,51.1,93,29.82,9.0,West,5.8,-,N/A,,Clear,260,2013-10-02 05:55:00
2:55 AM,60.1,45.0,57,29.84,10.0,West,13.8,-,N/A,,Clear,280,2013-10-02 06:55:00
3:55 AM,59.0,45.0,60,29.85,10.0,WNW,9.2,-,N/A,,Clear,290,2013-10-02 07:55:00
4:55 AM,57.9,42.1,56,29.86,10.0,West,11.5,-,N/A,,Clear,270,2013-10-02 08:55:00
5:55 AM,57.0,42.1,57,29.89,10.0,West,10.4,-,N/A,,Clear,260,2013-10-02 09:55:00
6:55 AM,54.0,42.1,64,29.90,10.0,West,8.1,-,N/A,,Clear,270,2013-10-02 10:55:00
7:55 AM,55.9,43.0,62,29.93,10.0,West,9.2,-,N/A,,Clear,270,2013-10-02 11:55:00
8:55 AM,57.9,46.0,65,29.94,10.0,West,9.2,-,N/A,,Clear,270,2013-10-02 12:55:00
9:55 AM,60.1,46.0,60,29.96,10.0,WNW,12.7,-,N/A,,Clear,290,2013-10-02 13:55:00
10:55 AM,62.1,46.0,56,29.98,10.0,West,12.7,21.9,N/A,,Clear,280,2013-10-02 14:55:00
11:55 AM,64.0,44.1,48,30.00,10.0,West,12.7,20.7,N/A,,Clear,280,2013-10-02 15:55:00
12:55 PM,66.0,44.1,45,30.00,10.0,WNW,16.1,26.5,N/A,,Clear,300,2013-10-02 16:55:00
1:55 PM,66.9,39.9,37,30.02,10.0,WNW,12.7,20.7,N/A,,Clear,300,2013-10-02 17:55:00
2:55 PM,66.9,39.9,37,30.02,10.0,WNW,11.5,21.9,N/A,,Clear,300,2013-10-02 18:55:00
3:55 PM,66.9,39.9,37,30.02,10.0,WNW,12.7,-,N/A,,Clear,290,2013-10-02 19:55:00
4:55 PM,66.0,37.9,36,30.03,10.0,NW,10.4,-,N/A,,Clear,310,2013-10-02 20:55:00
5:55 PM,64.9,37.9,37,30.03,10.0,NW,8.1,-,N/A,,Clear,310,2013-10-02 21:55:00
6:55 PM,63.0,39.0,41,30.03,10.0,NW,3.5,-,N/A,,Clear,320,2013-10-02 22:55:00
7:55 PM,55.0,43.0,64,30.04,10.0,Calm,Calm,-,N/A,,Clear,0,2013-10-02 23:55:00
8:55 PM,53.1,43.0,69,30.04,10.0,Calm,Calm,-,N/A,,Clear,0,2013-10-03 00:55:00
9:55 PM,51.1,43.0,74,30.05,10.0,South,3.5,-,N/A,,Clear,180,2013-10-03 01:55:00
10:55 PM,53.1,44.1,71,30.06,10.0,Calm,Calm,-,N/A,,Clear,0,2013-10-03 02:55:00
11:55 PM,50.0,43.0,77,30.06,10.0,Calm,Calm,-,N/A,,Clear,0,2013-10-03 03:55:00